Hundvaag 1 weather for Nov 1990
Month no. 41
Obs.
Da.
Temp. Dew Point Precip. Wind
Speed
Wind gusts Cloud cover Press. Humidity Wind dir. Sunny OPT
01.11.1990 5,8   1,1             1  
02.11.1990 6,5   0,0                
03.11.1990 5,0   1,8             1  
04.11.1990 2,3   0,0             1  
05.11.1990 0,2   0,0             1  
06.11.1990 3,5   0,0             1  
07.11.1990 1,3   0,0             1  
08.11.1990 0,0   0,0             1  
09.11.1990 4,9   0,0                
10.11.1990 6,3   1,2                
11.11.1990 7,7   0,1                
12.11.1990 6,8   2,2                
13.11.1990 8,8   1,1                
14.11.1990 8,9   8,2                
15.11.1990 8,1   4,3                
16.11.1990 5,5   16,1                
17.11.1990 6,2   21,7                
18.11.1990 5,4   9,8                
19.11.1990 2,2   8,2                
20.11.1990 2,9   9,9                
21.11.1990 -0,5   0,1                
22.11.1990 1,6   6,0                
23.11.1990 3,0   2,0                
24.11.1990 3,1   0,1                
25.11.1990 3,0   0,0                
26.11.1990 -1,3   0,0             1  
27.11.1990 -2,3   0,0             1  
28.11.1990 2,1   0,0                
29.11.1990 5,0   3,6             1  
30.11.1990 -0,3   0,0                
                       
Avrg/Sum 3,7   97,5             10